Wind_Speed
15 15 15 15 15 14 14 14 14 14 14 14 14 15 15 16 16 16 16 16 16 16 16 15 15 15 15 15 15 15 16 17 17 17 17 17 17 17 17 17 17 17 17
16 16 15 15 15 15 15 15 15 15 15 15 15 15 16 16 16 17 17 17 17 18 18 18 18 18 17 17 17 17 18 18 18 19 19 19 19 19 19 18 18 18 18
18 17 16 16 16 16 16 16 16 15 15 16 16 16 16 17 17 17 18 18 19 19 19 19 19 19 19 19 18 19 19 19 19 20 20 21 21 21 21 20 20 19 19
19 18 17 17 17 16 16 16 16 16 16 16 16 16 17 17 18 18 18 18 19 19 19 19 20 20 20 20 20 20 20 20 21 21 22 22 22 22 22 21 21 21 20
20 19 18 18 17 16 16 16 15 15 15 16 16 16 17 17 17 18 18 18 18 18 18 19 20 20 20 20 20 20 21 21 22 22 22 23 23 23 22 22 22 21 21
21 20 19 18 17 16 16 16 16 16 16 16 17 17 17 18 18 18 18 18 18 19 19 20 20 20 20 20 20 21 21 21 22 22 23 23 23 23 23 23 22 22 21
22 21 20 19 19 18 17 17 17 17 18 18 18 18 19 19 19 19 19 19 20 20 20 20 20 20 20 20 21 21 21 21 21 22 22 23 23 24 23 23 23 22 22
23 22 22 21 21 20 19 19 19 19 19 19 20 20 20 20 20 20 20 20 20 20 20 20 20 21 21 21 21 21 21 21 21 22 22 23 23 24 24 24 23 23 23
24 24 24 23 23 22 21 21 21 21 21 20 20 20 20 20 20 20 20 20 20 21 21 21 21 21 21 21 21 21 22 22 22 22 23 23 24 24 24 24 24 24 24
25 25 26 26 25 25 24 23 22 22 21 21 20 20 20 20 20 20 20 20 20 21 21 21 21 21 22 22 22 22 22 22 23 23 24 24 24 25 25 26 26 26 26
28 28 28 28 28 27 26 25 24 23 22 21 21 20 20 20 20 20 20 20 20 20 20 21 21 21 21 22 22 22 22 23 23 24 24 25 25 25 26 26 27 27 28
31 31 30 30 29 29 28 26 25 24 23 22 21 21 20 20 20 20 20 20 20 20 21 21 21 21 21 21 22 22 23 23 23 24 24 25 25 26 26 26 26 27 28
32 32 31 31 30 30 29 28 26 25 24 23 22 22 21 21 20 20 20 20 20 21 21 21 21 22 21 22 22 22 23 23 23 24 24 25 25 26 26 27 27 28 28
33 32 32 32 31 31 30 29 28 27 26 25 24 23 22 22 21 21 21 21 21 21 22 22 22 22 22 22 22 23 23 24 24 25 25 25 26 26 27 28 28 29 29
33 33 33 33 32 32 31 31 29 29 28 27 26 25 24 23 23 22 22 22 23 23 23 23 23 23 23 23 23 24 24 24 25 25 26 26 27 27 28 28 29 29 29
34 33 33 33 33 33 32 32 31 31 30 29 27 27 26 25 25 24 24 24 24 24 24 24 24 24 25 25 25 25 26 26 27 27 27 27 28 28 28 29 29 29 29
35 35 34 34 34 34 34 33 33 32 32 31 30 29 29 28 27 27 27 26 26 26 26 26 26 26 27 27 27 27 27 28 28 28 29 29 29 29 29 29 30 30 31
36 35 35 35 35 35 35 35 35 34 34 33 32 31 31 31 30 30 29 29 29 29 29 29 29 29 29 29 29 29 29 30 30 30 30 30 30 30 31 31 31 31 31
36 36 36 37 37 37 37 37 37 36 36 35 35 34 34 34 34 33 32 32 32 32 31 31 31 31 31 31 31 31 31 32 32 32 32 32 32 32 32 32 32 32 32
37 37 37 37 38 38 39 39 39 38 38 38 37 37 37 37 37 36 35 35 35 35 34 34 34 34 34 34 34 34 34 34 34 34 34 34 35 35 35 34 34 34 34
38 38 38 38 39 40 40 40 40 40 40 40 40 40 40 39 39 38 38 38 38 38 38 38 37 37 37 37 37 37 37 37 37 37 37 37 37 37 37 37 36 37 37
38 38 39 39 40 40 41 41 42 42 43 42 42 42 41 41 41 41 41 41 41 41 41 40 40 40 40 40 40 40 40 39 39 40 39 39 39 39 39 39 39 40 40
39 39 39 39 40 41 42 42 43 44 44 43 43 43 43 44 44 44 44 44 44 44 44 44 44 44 44 43 43 43 43 42 42 42 42 42 41 42 42 42 42 43 42
40 39 39 40 40 41 42 43 44 44 44 44 44 44 45 46 46 47 47 47 47 47 47 47 47 47 47 46 46 46 46 46 46 45 44 44 44 44 45 45 45 45 45
40 40 40 40 41 41 42 43 44 44 44 45 45 45 46 47 48 49 49 50 50 50 50 50 50 50 49 49 49 49 49 49 49 48 48 47 47 47 47 48 48 48 48
40 40 40 40 41 41 42 43 43 43 44 45 45 46 47 48 49 50 51 52 52 52 53 53 53 53 53 52 52 52 52 52 52 51 51 50 49 49 50 50 50 50 51
Wind_Direction
245 247 248 250 251 251 252 254 258 261 264 267 270 272 274 275 277 278 279 281 281 282 282 281 281 281 281 281 281 280 281 281 281 282 282 283 283 283 284 285 287 288 289
245 247 248 251 253 253 253 254 257 260 263 267 269 272 274 276 277 278 279 280 280 280 280 280 280 280 280 281 282 281 281 281 281 282 282 283 284 284 284 285 286 287 288
243 246 249 251 254 256 256 256 258 260 262 265 269 271 273 276 278 279 280 281 281 280 280 281 281 281 281 281 282 282 282 282 283 283 284 285 286 285 285 286 286 287 288
244 247 249 252 255 256 257 259 260 261 263 266 269 271 274 277 280 281 282 283 283 283 282 283 283 283 284 284 283 283 283 283 284 284 285 286 287 287 286 286 286 286 287
244 247 250 253 254 255 256 259 261 263 265 268 271 274 277 280 282 283 284 285 287 286 286 286 286 287 287 286 286 285 285 284 285 285 286 287 287 286 286 286 285 285 285
244 247 250 253 253 254 256 260 263 266 268 270 273 276 280 283 284 285 286 287 288 289 288 288 288 288 288 287 287 286 285 284 284 285 286 286 286 285 285 284 283 283 284
243 247 251 254 254 255 257 261 266 269 271 273 276 279 281 283 285 287 287 288 289 290 289 289 289 289 289 289 288 286 285 284 284 284 284 284 284 284 283 282 282 283 283
242 247 251 254 257 258 260 263 267 270 273 275 277 279 281 283 285 286 287 288 289 290 289 289 289 290 290 290 289 288 287 286 286 286 286 285 285 284 283 282 282 282 282
241 247 251 255 258 261 263 265 267 270 273 275 277 279 280 282 284 286 287 288 290 291 291 291 291 291 292 291 291 290 289 288 288 288 288 287 286 285 283 282 281 281 281
241 246 251 255 259 262 263 265 268 270 272 274 276 277 279 281 283 285 287 288 290 292 292 293 293 293 293 293 292 292 290 290 290 290 289 288 287 286 284 282 281 281 281
241 246 250 255 258 262 264 265 267 268 270 272 274 276 278 281 283 285 287 288 290 292 293 294 295 295 295 295 294 293 292 291 291 290 290 289 289 288 286 285 284 282 282
241 244 248 253 256 260 262 264 265 267 268 270 272 274 277 280 282 284 287 289 290 292 293 294 295 296 295 295 294 295 294 293 293 292 292 291 291 290 288 287 287 286 285
241 244 247 251 254 257 259 261 263 265 266 268 271 273 275 278 280 282 285 288 289 291 293 294 296 296 296 295 296 296 295 294 294 294 294 293 292 292 291 290 289 288 287
240 243 246 249 251 253 256 258 260 262 264 266 269 272 274 277 279 281 283 285 287 289 291 292 293 294 294 295 296 296 296 295 295 295 295 294 293 293 292 292 291 290 289
240 242 245 247 249 251 254 256 259 261 263 266 268 271 273 275 276 278 280 283 284 286 288 290 291 292 293 294 295 295 295 295 296 296 295 295 294 293 293 293 292 291 290
239 241 243 245 248 250 253 256 259 261 263 265 267 269 271 273 275 276 277 280 282 284 286 287 289 290 291 292 293 294 295 295 296 296 295 295 294 294 293 293 293 292 292
239 241 243 246 249 251 254 256 258 261 263 264 266 267 270 272 274 275 276 278 279 281 283 284 286 288 289 290 291 293 293 294 295 295 294 294 294 293 293 293 292 292 291
239 242 244 247 250 252 254 256 257 259 262 264 266 268 269 271 272 273 274 275 277 279 280 282 283 284 286 288 289 291 292 293 294 294 294 294 293 292 292 292 292 291 291
239 242 245 248 251 253 255 257 258 260 263 265 266 268 269 269 270 271 272 274 276 277 279 280 280 281 283 285 287 288 290 291 292 292 293 292 292 292 292 291 291 291 291
240 243 246 248 251 254 256 258 260 262 264 265 266 266 267 268 269 271 272 273 275 276 277 278 278 279 281 283 284 286 287 288 290 290 290 291 291 291 291 290 290 290 289
241 244 246 249 251 254 256 258 260 261 262 263 265 266 267 268 270 271 271 272 273 274 275 276 277 278 279 281 282 283 284 286 288 288 288 289 289 289 289 289 289 289 288
242 245 247 250 252 254 256 258 259 260 262 263 265 267 268 269 270 270 270 271 272 273 274 275 275 277 278 279 280 281 283 284 285 285 286 286 287 288 288 287 287 287 287
245 247 249 251 254 255 257 258 259 261 263 264 265 266 266 267 267 268 269 270 271 272 273 274 274 276 277 278 279 281 282 283 283 283 283 284 284 285 286 285 286 286 286
248 250 251 253 254 255 256 258 259 261 262 263 263 264 265 266 268 269 269 270 271 271 272 273 274 274 275 277 278 279 280 281 281 281 281 281 282 283 283 284 285 285 284
250 252 253 254 255 256 257 259 260 261 262 263 264 265 266 267 268 269 269 269 270 270 271 271 272 273 274 274 275 276 278 279 279 280 279 279 280 281 282 283 284 284 284
251 252 254 255 256 257 258 259 260 262 263 264 265 266 266 267 268 268 269 269 270 270 270 270 271 271 271 272 273 274 276 277 278 279 279 279 279 281 282 282 283 283 284
Height
5880 5881 5881 5883 5883 5884 5885 5885 5886 5886 5886 5886 5886 5886 5886 5885 5885 5885 5884 5884 5883 5883 5882 5881 5881 5881 5880 5880 5879 5879 5878 5878 5877 5876 5876 5875 5874 5873 5873 5872 5871 5870 5869
5877 5878 5879 5880 5881 5882 5883 5883 5884 5884 5884 5884 5884 5884 5883 5883 5883 5882 5882 5881 5881 5880 5879 5879 5878 5878 5877 5877 5877 5876 5875 5875 5874 5874 5873 5872 5872 5871 5870 5869 5868 5867 5866
5874 5875 5876 5878 5879 5880 5880 5881 5881 5882 5882 5881 5881 5881 5881 5881 5880 5880 5879 5879 5878 5877 5877 5876 5875 5875 5875 5874 5874 5873 5872 5872 5871 5871 5870 5869 5868 5867 5866 5866 5865 5864 5863
5871 5873 5874 5875 5876 5877 5878 5879 5879 5879 5879 5879 5879 5879 5878 5878 5878 5877 5877 5876 5875 5875 5874 5873 5873 5872 5872 5871 5871 5870 5869 5869 5868 5867 5867 5866 5865 5864 5863 5862 5861 5861 5860
5868 5870 5871 5872 5874 5874 5875 5876 5876 5876 5876 5876 5876 5876 5876 5875 5875 5874 5874 5873 5873 5872 5871 5870 5870 5869 5869 5868 5867 5867 5866 5865 5865 5864 5863 5862 5861 5860 5859 5859 5858 5857 5856
5865 5867 5868 5869 5871 5872 5872 5873 5873 5873 5873 5873 5873 5873 5873 5872 5872 5871 5871 5870 5870 5869 5868 5867 5867 5866 5865 5865 5864 5863 5863 5862 5861 5860 5859 5858 5857 5856 5856 5855 5854 5853 5852
5862 5863 5865 5866 5867 5868 5869 5870 5870 5870 5870 5870 5870 5870 5869 5869 5869 5868 5867 5867 5866 5866 5865 5864 5863 5863 5862 5861 5861 5860 5859 5858 5857 5856 5855 5854 5853 5852 5852 5851 5850 5849 5848
5858 5860 5861 5862 5863 5864 5865 5866 5866 5866 5866 5866 5866 5866 5866 5866 5865 5865 5864 5864 5863 5862 5862 5861 5860 5859 5859 5858 5857 5856 5855 5854 5853 5852 5851 5850 5849 5848 5848 5847 5846 5845 5844
5855 5856 5857 5858 5859 5860 5861 5862 5862 5863 5863 5863 5863 5862 5862 5862 5862 5861 5861 5860 5860 5859 5858 5857 5857 5856 5855 5854 5853 5852 5851 5850 5849 5848 5847 5846 5845 5844 5843 5842 5841 5840 5840
5850 5852 5853 5854 5855 5856 5857 5858 5858 5859 5859 5859 5859 5859 5858 5858 5858 5857 5857 5857 5856 5855 5854 5854 5853 5852 5851 5850 5849 5849 5848 5846 5845 5844 5843 5842 5841 5840 5839 5838 5837 5836 5835
5845 5847 5848 5849 5850 5851 5852 5853 5854 5854 5855 5855 5855 5855 5855 5854 5854 5854 5853 5853 5852 5851 5851 5850 5849 5848 5847 5846 5845 5845 5843 5842 5841 5840 5839 5838 5837 5835 5834 5833 5832 5831 5830
5840 5842 5843 5844 5846 5847 5848 5848 5849 5850 5850 5851 5851 5851 5851 5850 5850 5850 5849 5849 5848 5847 5847 5846 5845 5844 5843 5842 5841 5840 5839 5838 5837 5836 5834 5833 5832 5831 5829 5828 5827 5826 5824
5835 5837 5838 5840 5841 5842 5843 5844 5845 5845 5846 5846 5846 5847 5847 5847 5846 5846 5846 5845 5844 5843 5843 5842 5841 5840 5839 5838 5837 5836 5835 5834 5832 5831 5830 5829 5827 5826 5824 5823 5822 5820 5819
5829 5832 5833 5835 5836 5837 5838 5839 5840 5841 5841 5841 5842 5842 5842 5842 5842 5842 5842 5841 5840 5839 5839 5838 5837 5836 5835 5834 5833 5832 5830 5829 5828 5827 5825 5824 5823 5821 5819 5818 5816 5815 5813
5824 5826 5828 5829 5830 5832 5833 5834 5835 5836 5836 5837 5837 5838 5838 5838 5838 5838 5837 5837 5836 5835 5834 5833 5832 5831 5830 5829 5828 5827 5826 5824 5823 5822 5820 5819 5817 5816 5814 5812 5810 5809 5807
5818 5820 5822 5823 5825 5827 5828 5829 5830 5830 5831 5832 5832 5833 5833 5833 5833 5833 5832 5832 5831 5830 5830 5829 5828 5827 5826 5824 5823 5822 5821 5819 5818 5817 5815 5813 5812 5810 5808 5807 5805 5803 5801
5812 5814 5816 5818 5820 5821 5823 5824 5824 5825 5826 5826 5827 5827 5827 5827 5827 5827 5827 5827 5826 5825 5824 5823 5822 5822 5820 5819 5818 5817 5815 5814 5812 5811 5809 5807 5806 5804 5802 5801 5799 5797 5795
5806 5808 5810 5812 5814 5815 5816 5817 5818 5819 5820 5821 5821 5822 5822 5822 5821 5821 5821 5821 5820 5819 5819 5818 5817 5816 5815 5813 5812 5811 5809 5808 5806 5805 5803 5801 5799 5798 5796 5794 5792 5791 5789
5799 5802 5804 5806 5808 5809 5810 5811 5812 5813 5814 5815 5815 5815 5815 5815 5815 5815 5815 5814 5814 5813 5812 5811 5810 5809 5808 5807 5806 5805 5803 5801 5800 5798 5796 5794 5793 5791 5789 5787 5785 5784 5782
5793 5795 5798 5799 5801 5802 5803 5804 5805 5807 5807 5808 5808 5808 5808 5808 5808 5808 5808 5807 5806 5806 5805 5804 5803 5802 5801 5800 5799 5797 5796 5794 5793 5791 5789 5787 5785 5783 5782 5780 5778 5776 5774
5786 5789 5791 5792 5794 5794 5796 5797 5798 5799 5799 5800 5800 5800 5800 5800 5800 5800 5800 5799 5799 5798 5797 5796 5795 5794 5793 5792 5791 5789 5788 5786 5785 5783 5781 5779 5778 5776 5774 5772 5770 5768 5766
5779 5781 5783 5785 5786 5787 5788 5789 5790 5790 5791 5792 5792 5792 5792 5792 5792 5791 5791 5790 5790 5789 5788 5788 5787 5785 5784 5783 5782 5780 5779 5779 5777 5775 5773 5771 5769 5767 5765 5763 5761 5759 5757
5771 5774 5776 5777 5778 5779 5780 5781 5781 5782 5783 5784 5784 5784 5783 5783 5782 5782 5782 5781 5780 5780 5779 5778 5777 5776 5775 5774 5772 5771 5770 5770 5768 5766 5764 5762 5760 5758 5756 5753 5751 5749 5747
5763 5765 5767 5769 5770 5771 5772 5772 5773 5774 5774 5775 5775 5774 5774 5773 5773 5772 5772 5771 5770 5770 5769 5768 5767 5765 5764 5763 5762 5761 5760 5759 5758 5756 5754 5752 5750 5748 5745 5743 5741 5738 5736
5754 5756 5758 5760 5761 5762 5763 5764 5764 5765 5765 5765 5765 5765 5764 5763 5763 5762 5761 5760 5759 5759 5758 5756 5756 5754 5753 5752 5751 5750 5748 5747 5746 5745 5743 5742 5739 5737 5734 5732 5730 5727 5725
5745 5747 5749 5751 5752 5753 5754 5754 5755 5755 5756 5755 5755 5755 5754 5753 5752 5751 5750 5749 5748 5747 5746 5745 5744 5743 5742 5741 5740 5739 5738 5736 5735 5733 5732 5730 5728 5725 5723 5720 5718 5715 5713